Jefferson, NC

10:06 PM EDT on October 14, 2019 (GMT -0400)
Ashe County

Weather History for KGEV - June, 2019

Change the Weather History Date:

Tuesday, June 11, 2019

  Actual Average Record
Temperature  
Mean Temperature 60 °F -  
Max Temperature 68 °F 76 °F 85 °F (1993)
Min Temperature 51 °F 51 °F 33 °F (1972)
Degree Days  
Heating Degree Days 6    
Growing Degree Days 10 (Base 50)    
Moisture  
Dew Point 47 °F    
Average Humidity 64    
Maximum Humidity 91    
Minimum Humidity 39    
Precipitation  
Precipitation 0.00 in - - ()
Sea Level Pressure  
Sea Level Pressure 30.16 in    
Wind  
Wind Speed 8 mph (NNW)    
Max Wind Speed 14 mph    
Max Gust Speed 22 mph    
Visibility 10 miles    
Events      
Averages and records for this station are not official NWS values.
T = Trace of Precipitation, MM = Missing Value Source: NWS Daily Summary

Daily Weather History Graph

Daily Weather History Graph

Search for Another Location

Airport or City:

Astronomy

Jun. 11, 2019 Rise Set
Actual Time 6:07 AM EDT 8:43 PM EDT
Civil Twilight 5:36 AM EDT 9:14 PM EDT
Nautical Twilight 4:59 AM EDT 9:51 PM EDT
Astronomical Twilight 4:17 AM EDT 10:33 PM EDT
Moon 2:52 PM EDT (6/11) 2:37 AM EDT (6/11)
Length of Visible Light 15h 37m
Length of Day
14h 36m
Waxing Gibbous, 66% of the Moon is Illuminated
Jun 11
Waxing Gibbous
Jun 17
Full
Jun 25
Last Quarter
Jul 2
New
Jul 9
First Quarter

Hourly Weather History & Observations

Time (EDT) Temp. Dew Point Humidity Pressure Visibility Wind Dir Wind Speed Gust Speed Precip Events Conditions
12:05 AM 63.5 °F 60.3 °F 89% 30.08 in 10.0 mi NW 12.7 mph 18.4 mph N/A   Overcast
12:25 AM 63.1 °F 60.3 °F 90% 30.09 in 10.0 mi NNW 11.5 mph 18.4 mph N/A   Overcast
12:45 AM 62.6 °F 59.7 °F 90% 30.08 in 10.0 mi NNW 11.5 mph 19.6 mph N/A   Mostly Cloudy
1:05 AM 61.9 °F 59.2 °F 91% 30.08 in 10.0 mi NW 10.4 mph 19.6 mph N/A   Mostly Cloudy
1:25 AM 61.7 °F 59.0 °F 91% 30.09 in 10.0 mi NW 8.1 mph 16.1 mph N/A   Mostly Cloudy
1:45 AM 61.2 °F 57.4 °F 87% 30.09 in 10.0 mi NNW 12.7 mph 21.9 mph N/A   Overcast
2:05 AM 60.8 °F 57.2 °F 88% 30.09 in 10.0 mi NNW 10.4 mph 17.3 mph N/A   Overcast
2:25 AM 59.2 °F 56.3 °F 90% 30.10 in 10.0 mi NNW 9.2 mph - N/A   Overcast
2:45 AM 58.3 °F 55.6 °F 91% 30.10 in 10.0 mi NNW 10.4 mph - N/A   Overcast
3:05 AM 57.7 °F 53.8 °F 87% 30.11 in 10.0 mi NW 10.4 mph 18.4 mph N/A   Mostly Cloudy
3:25 AM 56.7 °F 52.5 °F 86% 30.10 in 10.0 mi NW 8.1 mph 16.1 mph N/A   Scattered Clouds
3:45 AM 56.1 °F 50.2 °F 80% 30.11 in 10.0 mi NW 11.5 mph 19.6 mph N/A   Clear
4:05 AM 55.0 °F 49.1 °F 80% 30.11 in 10.0 mi NW 13.8 mph 21.9 mph N/A   Clear
4:25 AM 54.7 °F 48.2 °F 79% 30.11 in 10.0 mi NW 12.7 mph 21.9 mph N/A   Clear
4:45 AM 53.8 °F 47.7 °F 80% 30.11 in 10.0 mi NW 10.4 mph 16.1 mph N/A   Clear
5:05 AM 53.2 °F 47.1 °F 80% 30.11 in 10.0 mi NW 10.4 mph 17.3 mph N/A   Clear
5:25 AM 52.7 °F 46.8 °F 80% 30.11 in 10.0 mi NW 9.2 mph - N/A   Clear
5:45 AM 52.5 °F 45.9 °F 78% 30.13 in 10.0 mi NW 4.6 mph - N/A   Clear
6:05 AM 51.8 °F 45.5 °F 79% 30.13 in 10.0 mi NW 10.4 mph - N/A   Clear
6:25 AM 51.8 °F 45.5 °F 79% 30.14 in 10.0 mi NW 5.8 mph - N/A   Clear
6:45 AM 51.6 °F 45.1 °F 79% 30.15 in 10.0 mi NW 5.8 mph - N/A   Clear
7:05 AM 51.8 °F 44.2 °F 75% 30.15 in 10.0 mi WNW 8.1 mph - N/A   Clear
7:25 AM 51.8 °F 44.8 °F 77% 30.16 in 10.0 mi NW 9.2 mph - N/A   Clear
7:45 AM 52.0 °F 44.4 °F 75% 30.16 in 10.0 mi NNW 9.2 mph - N/A   Clear
8:05 AM 52.3 °F 44.6 °F 75% 30.17 in 10.0 mi North 4.6 mph - N/A   Clear
8:25 AM 53.2 °F 45.1 °F 74% 30.17 in 10.0 mi NNW 5.8 mph - N/A   Clear
8:45 AM 53.8 °F 44.6 °F 71% 30.18 in 10.0 mi NNW 5.8 mph - N/A   Clear
9:05 AM 55.0 °F 44.2 °F 67% 30.18 in 10.0 mi NNW 6.9 mph - N/A   Clear
9:25 AM 55.9 °F 44.8 °F 66% 30.18 in 10.0 mi North 5.8 mph - N/A   Clear
9:45 AM 57.4 °F 44.4 °F 62% 30.18 in 10.0 mi NNW 9.2 mph - N/A   Clear
10:05 AM 57.7 °F 44.4 °F 61% 30.19 in 10.0 mi NNW 10.4 mph - N/A   Clear
10:25 AM 59.4 °F 44.6 °F 58% 30.19 in 10.0 mi NNW 9.2 mph - N/A   Clear
10:45 AM 60.1 °F 46.4 °F 61% 30.19 in 10.0 mi NNW 8.1 mph - N/A   Clear
11:05 AM 61.0 °F 46.6 °F 59% 30.19 in 10.0 mi NNW 6.9 mph - N/A   Clear
11:25 AM 63.0 °F 47.7 °F 57% 30.19 in 10.0 mi NNW 6.9 mph - N/A   Clear
11:45 AM 63.5 °F 45.5 °F 52% 30.19 in 10.0 mi North 8.1 mph - N/A   Clear
12:05 PM 64.2 °F 46.6 °F 53% 30.19 in 10.0 mi NNE 6.9 mph - N/A   Clear
12:25 PM 65.1 °F 45.0 °F 48% 30.20 in 10.0 mi North 9.2 mph - N/A   Clear
12:45 PM 66.0 °F 44.4 °F 46% 30.20 in 10.0 mi NNE 8.1 mph - N/A   Clear
1:05 PM 65.7 °F 42.1 °F 42% 30.20 in 10.0 mi NNE 5.8 mph - N/A   Clear
1:25 PM 66.0 °F 40.3 °F 39% 30.20 in 10.0 mi NNE 6.9 mph - N/A   Clear
1:45 PM 66.7 °F 44.1 °F 44% 30.20 in 10.0 mi North 6.9 mph - N/A   Clear
2:25 PM 66.9 °F 44.2 °F 44% 30.19 in 10.0 mi NE 11.5 mph 18.4 mph N/A   Clear
2:45 PM 67.6 °F 45.9 °F 46% 30.19 in 10.0 mi NE 6.9 mph - N/A   Clear
3:05 PM 66.9 °F 43.2 °F 42% 30.18 in 10.0 mi North 10.4 mph - N/A   Clear
3:25 PM 66.2 °F 46.4 °F 49% 30.18 in 10.0 mi NE 4.6 mph - N/A   Clear
3:45 PM 66.4 °F 45.9 °F 48% 30.18 in 10.0 mi NNW 3.5 mph - N/A   Clear
4:05 PM 67.8 °F 44.1 °F 42% 30.18 in 10.0 mi NE 4.6 mph - N/A   Clear
4:25 PM 68.2 °F 45.9 °F 45% 30.18 in 10.0 mi North 8.1 mph - N/A   Clear
4:45 PM 68.0 °F 45.3 °F 44% 30.17 in 10.0 mi North 6.9 mph - N/A   Clear
5:05 PM 67.8 °F 46.4 °F 46% 30.17 in 10.0 mi NNE 9.2 mph - N/A   Clear
5:25 PM 66.2 °F 41.9 °F 41% 30.17 in 10.0 mi North 4.6 mph - N/A   Clear
5:45 PM 65.1 °F 44.4 °F 47% 30.17 in 10.0 mi NNE 5.8 mph - N/A   Clear
6:05 PM 65.3 °F 45.5 °F 49% 30.17 in 10.0 mi NNE 3.5 mph - N/A   Clear
6:25 PM 64.0 °F 46.0 °F 52% 30.17 in 10.0 mi NNE 5.8 mph - N/A   Clear
6:45 PM 64.8 °F 45.0 °F 49% 30.16 in 10.0 mi Calm Calm - N/A   Clear
7:05 PM 64.8 °F 46.0 °F 51% 30.17 in 10.0 mi NNE 4.6 mph - N/A   Clear
7:25 PM 62.8 °F 45.7 °F 54% 30.17 in 10.0 mi Calm Calm - N/A   Clear
7:45 PM 61.3 °F 44.4 °F 54% 30.17 in 10.0 mi North 3.5 mph - N/A   Clear
8:05 PM 60.8 °F 44.1 °F 54% 30.18 in 10.0 mi Calm Calm - N/A   Clear
8:25 PM 59.5 °F 42.8 °F 54% 30.18 in 10.0 mi Calm Calm - N/A   Clear
8:45 PM 59.0 °F 42.8 °F 55% 30.18 in 10.0 mi NNE 3.5 mph - N/A   Clear
9:05 PM 59.0 °F 42.8 °F 55% 30.19 in 10.0 mi NNE 3.5 mph - N/A   Clear
9:25 PM 59.2 °F 42.8 °F 55% 30.19 in 10.0 mi NNE 3.5 mph - N/A   Clear
9:45 PM 59.2 °F 42.8 °F 55% 30.19 in 10.0 mi Calm Calm - N/A   Clear
10:05 PM 58.8 °F 42.8 °F 55% 30.20 in 10.0 mi Calm Calm - N/A   Clear
10:25 PM 58.1 °F 43.0 °F 57% 30.20 in 10.0 mi Calm Calm - N/A   Clear
10:45 PM 57.6 °F 43.0 °F 58% 30.20 in 10.0 mi Calm Calm - N/A   Clear
11:05 PM 57.6 °F 43.3 °F 59% 30.20 in 10.0 mi Calm Calm - N/A   Clear
11:25 PM 56.3 °F 43.7 °F 63% 30.20 in 10.0 mi Calm Calm - N/A   Clear
11:45 PM 56.7 °F 43.9 °F 62% 30.20 in 10.0 mi Calm Calm - N/A   Clear